Weather History for Kenosha, WI

Change the Weather History Date:

Monday, February 18, 2013

  Actual Average Record
Temperature  
Mean Temperature 38 °F -  
Max Temperature 48 °F 35 °F 54 °F (1961)
Min Temperature 28 °F 22 °F -11 °F (2006)
Degree Days  
Heating Degree Days 27    
Moisture  
Dew Point 32 °F    
Average Humidity 76    
Maximum Humidity 93    
Minimum Humidity 56    
Precipitation  
Precipitation 0.38 in - - ()
Sea Level Pressure  
Sea Level Pressure 29.56 in    
Wind  
Wind Speed 14 mph (SW)    
Max Wind Speed 20 mph    
Max Gust Speed 28 mph    
Visibility 7 miles    
Events Rain , Snow    
Averages and records for this station are not official NWS values.
T = Trace of Precipitation, MM = Missing Value Source: NWS Daily Summary

Daily Weather History Graph

Daily Weather History Graph

Search for Another Location

Airport:

Trip Planner

Search our weather history database for the weather conditions in past years. The results will help you decide how hot, cold, wet, or windy it might be!

Date:

Astronomy

Feb. 18, 2013 Rise Set
Actual Time 6:43 AM CST 5:27 PM CST
Civil Twilight 6:15 AM CST 5:56 PM CST
Nautical Twilight 5:42 AM CST 6:29 PM CST
Astronomical Twilight 5:09 AM CST 7:02 PM CST
Moon 11:09 AM CST (2/18) 1:26 AM CST (2/18)
Length of Visible Light 11h 41m
Length of Day
10h 44m
First Quarter, 58% of the Moon is Illuminated
Feb 18
First Quarter
Feb 25
Full
Mar 4
Last Quarter
Mar 11
New
Mar 19
First Quarter

Hourly Weather History & Observations

Time (CST) Temp. Windchill Dew Point Humidity Pressure Visibility Wind Dir Wind Speed Gust Speed Precip Events Conditions
12:53 AM 28.0 °F 16.1 °F 14.0 °F 56% 29.99 in 10.0 mi SSE 16.1 mph - N/A   Clear
1:53 AM 28.9 °F 20.4 °F 17.1 °F 61% 29.96 in 10.0 mi SSE 9.2 mph 19.6 mph N/A   Clear
3:53 AM 28.9 °F 18.2 °F 17.1 °F 61% 29.87 in 10.0 mi SSE 13.8 mph 20.7 mph N/A   Clear
4:53 AM 28.9 °F 18.6 °F 17.1 °F 61% 29.83 in 10.0 mi SSE 12.7 mph - N/A   Clear
6:53 AM 30.9 °F 21.2 °F 18.0 °F 59% 29.78 in 10.0 mi South 12.7 mph - N/A   Clear
8:53 AM 36.0 °F 28.0 °F 23.0 °F 59% 29.74 in 10.0 mi South 11.5 mph 19.6 mph N/A   Clear
9:53 AM 39.9 °F 31.8 °F 26.1 °F 58% 29.72 in 10.0 mi South 15.0 mph - N/A   Clear
10:53 AM 43.0 °F 35.4 °F 28.9 °F 58% 29.70 in 10.0 mi SSW 16.1 mph - N/A   Clear
11:53 AM 46.0 °F 39.0 °F 32.0 °F 58% 29.65 in 10.0 mi SSW 17.3 mph 26.5 mph N/A   Clear
12:53 PM 48.0 °F - 34.0 °F 58% 29.61 in 10.0 mi South 19.6 mph 25.3 mph N/A   Clear
1:53 PM 48.9 °F - 36.0 °F 61% 29.60 in 10.0 mi South 18.4 mph 23.0 mph N/A   Overcast
2:53 PM 48.9 °F - 37.0 °F 64% 29.58 in 10.0 mi South 13.8 mph - N/A   Overcast
3:53 PM 48.0 °F - 39.0 °F 71% 29.55 in 9.0 mi South 11.5 mph - 0.00 in Rain Light Rain
4:41 PM 46.4 °F 43.5 °F 39.2 °F 76% 29.51 in 10.0 mi South 5.8 mph - 0.00 in   Overcast
4:53 PM 45.0 °F 41.2 °F 39.9 °F 82% 29.52 in 10.0 mi South 6.9 mph - 0.00 in   Overcast
5:09 PM 46.4 °F 42.9 °F 39.2 °F 76% 29.49 in 10.0 mi SSE 6.9 mph - N/A   Overcast
5:34 PM 46.4 °F 41.1 °F 41.0 °F 81% 29.48 in 3.0 mi SSE 11.5 mph 19.6 mph 0.01 in Rain Light Rain
6:35 PM 46.4 °F 41.1 °F 42.8 °F 87% 29.45 in 4.0 mi South 11.5 mph - 0.03 in Rain Light Rain
6:53 PM 46.0 °F 41.0 °F 43.0 °F 89% 29.45 in 4.0 mi South 10.4 mph - 0.05 in Rain Light Rain
7:53 PM 45.0 °F 39.3 °F 43.0 °F 93% 29.43 in 2.0 mi SSW 11.5 mph - 0.14 in Rain Heavy Rain
8:06 PM 44.6 °F 38.8 °F 42.8 °F 93% 29.40 in 3.0 mi SSW 11.5 mph - 0.05 in Rain Rain
8:53 PM 39.9 °F 32.5 °F 37.0 °F 89% 29.41 in 3.0 mi WNW 12.7 mph 25.3 mph 0.16 in Rain Light Rain
8:58 PM 39.2 °F 30.8 °F 37.4 °F 93% 29.39 in 3.0 mi NW 15.0 mph 21.9 mph 0.01 in Rain Light Rain
9:08 PM 39.2 °F 31.6 °F 35.6 °F 87% 29.39 in 3.0 mi NW 12.7 mph - 0.02 in Rain Light Rain
9:18 PM 37.4 °F 29.8 °F 35.6 °F 93% 29.38 in 4.0 mi WNW 11.5 mph - 0.02 in Rain Light Rain
9:37 PM 37.4 °F 29.3 °F 33.8 °F 87% 29.39 in 4.0 mi WNW 12.7 mph - 0.02 in   Overcast
9:44 PM 37.4 °F 28.9 °F 33.8 °F 87% 29.40 in 4.0 mi West 13.8 mph 21.9 mph 0.02 in   Overcast
9:53 PM 36.0 °F 26.3 °F 33.1 °F 89% 29.43 in 4.0 mi West 16.1 mph 24.2 mph 0.02 in   Overcast
10:51 PM 33.8 °F 24.3 °F 30.2 °F 87% 29.45 in 2.5 mi West 13.8 mph 24.2 mph 0.01 in Snow Light Snow
10:53 PM 34.0 °F 23.4 °F 30.9 °F 89% 29.47 in 2.5 mi West 17.3 mph 25.3 mph 0.01 in Snow Light Snow
11:02 PM 33.8 °F 23.5 °F 30.2 °F 87% 29.45 in 3.0 mi West 16.1 mph - 0.00 in Snow Light Snow
11:40 PM 33.8 °F 22.8 °F 30.2 °F 87% 29.46 in 5.0 mi West 18.4 mph 27.6 mph 0.00 in Snow Light Snow
11:53 PM 34.0 °F 23.0 °F 30.0 °F 85% 29.48 in 4.0 mi West 18.4 mph 27.6 mph 0.00 in Snow Light Snow